Wind_Speed
18 18 19 21 24 18 13 7 7 13 14 13 17 14 21 26 23 16 14 15 18 19 16 13 8 15 16 17 16 17 12 7 12 15 12 11 17 14 16 9 12 12 6 4
20 19 18 18 20 19 21 8 15 10 14 10 13 19 23 25 21 16 13 14 16 16 16 11 11 17 8 5 12 5 13 8 11 13 11 14 17 15 14 12 12 13 8 4
21 22 19 17 16 15 13 7 4 14 15 21 20 17 18 21 25 18 18 16 17 16 14 15 12 15 9 6 9 8 6 9 11 13 8 7 9 12 14 15 11 14 14 9
20 23 22 18 14 10 11 7 7 14 6 12 16 19 19 21 17 14 19 19 19 17 16 15 17 17 17 11 6 8 8 13 14 18 16 10 13 17 16 18 16 12 8 7
19 21 20 20 15 6 6 15 10 18 21 18 15 12 20 19 18 18 19 18 18 15 15 15 14 15 15 14 13 11 13 12 13 18 20 17 13 14 9 13 16 18 17 18
17 21 21 20 17 6 6 14 11 10 13 15 11 12 15 18 19 21 24 15 18 17 16 21 20 22 9 12 14 9 14 12 12 16 18 18 16 8 13 14 13 14 2 15
17 21 23 21 16 12 7 10 9 9 11 11 11 14 20 17 19 19 22 20 11 5 7 11 11 15 12 11 13 6 6 10 11 13 14 17 14 8 14 23 9 13 23 24
21 21 21 18 14 12 6 10 5 8 9 18 13 15 19 16 18 11 15 8 6 7 7 7 8 11 14 15 16 14 8 8 8 12 13 12 8 5 6 17 11 5 9 25
19 18 18 16 14 11 6 7 7 5 10 8 12 21 18 13 9 13 14 18 6 5 7 8 14 12 15 15 19 18 14 9 7 15 14 19 14 14 8 2 6 11 10 22
16 15 15 15 13 10 10 4 11 5 13 16 7 9 8 16 16 8 13 7 9 10 9 12 13 14 18 17 20 15 14 13 15 13 12 15 6 11 7 10 2 11 20 17
14 14 14 15 13 11 6 5 10 4 10 23 16 15 12 10 4 4 11 9 8 7 11 12 11 12 12 12 13 17 15 14 13 12 16 20 2 7 6 9 8 17 21 21
14 13 14 14 13 12 7 2 7 9 10 17 19 22 21 17 9 8 5 10 13 8 6 3 4 7 5 10 6 12 7 6 7 3 3 8 10 15 13 13 14 16 18 18
13 13 13 13 13 12 9 9 11 11 14 23 20 16 8 8 11 11 10 1 7 13 7 5 4 3 7 2 5 4 3 10 5 5 3 7 5 11 10 13 14 18 16 16
12 13 13 14 12 11 11 8 9 7 10 6 4 4 11 9 8 8 14 13 10 12 11 7 5 3 2 6 3 3 3 2 4 5 9 13 14 8 14 13 14 14 14 15
13 13 12 13 12 8 8 8 8 4 3 7 15 17 13 10 9 11 10 10 10 13 12 6 6 6 2 5 9 5 7 3 4 7 12 21 8 8 7 13 14 15 16 16
13 13 13 13 8 4 5 2 1 3 4 6 4 7 8 7 8 10 11 11 11 10 11 6 9 1 2 5 8 13 15 16 11 6 13 12 12 13 9 14 14 14 14 13
13 13 10 7 3 5 3 0 3 4 3 4 7 5 4 6 6 8 10 11 13 13 16 12 11 7 3 6 10 13 5 5 4 5 2 10 9 15 13 11 13 14 13 12
12 6 2 2 3 3 3 6 7 5 5 4 4 3 12 2 7 9 9 13 14 17 17 17 15 9 6 8 8 11 8 3 6 7 8 8 11 11 16 13 11 12 13 13
4 2 4 3 2 3 6 4 3 3 4 6 4 4 3 8 10 6 10 9 8 11 10 15 12 11 5 9 16 13 15 12 12 7 3 8 19 14 16 15 17 13 12 12
2 2 3 3 3 2 2 1 3 3 5 6 7 10 5 12 8 3 5 6 5 8 12 19 13 12 25 22 20 12 12 10 10 10 10 11 13 16 17 17 15 13 14 15
4 4 2 3 5 2 4 4 4 5 4 6 6 7 7 10 6 4 4 3 3 8 11 11 12 12 17 30 29 21 17 13 14 12 10 12 15 16 13 11 14 13 13 17
4 5 4 2 4 5 4 3 4 5 2 5 4 2 4 5 3 5 3 4 3 5 7 5 14 12 20 21 29 30 27 25 27 12 8 9 7 19 16 16 17 15 14 16
1 2 2 4 3 1 4 3 3 2 1 1 2 3 3 3 4 5 3 4 6 9 4 7 10 9 11 15 17 24 27 26 22 19 13 10 13 17 18 19 16 14 16 18
4 4 2 4 4 4 3 4 5 2 2 7 7 8 3 4 3 3 4 4 4 3 4 5 6 15 18 18 15 15 30 27 25 21 14 16 18 14 15 17 20 22 20 18
3 4 3 7 9 3 7 8 9 8 5 10 10 10 5 4 4 3 3 4 4 2 4 4 12 16 11 12 8 7 8 10 11 18 18 18 19 18 21 20 21 25 22 25
3 4 7 9 4 4 3 4 5 6 9 10 2 4 3 3 4 3 6 4 4 4 6 13 12 13 14 14 9 3 7 12 16 19 20 20 17 17 18 21 25 27 31 32
4 7 9 9 5 3 5 5 8 7 9 2 2 2 3 5 4 3 2 4 5 17 15 16 14 12 12 8 6 10 15 17 19 20 17 16 15 17 23 30 31 32 32 30
Wind_Direction
346 340 339 342 341 350 342 288 247 176 179 198 224 232 237 258 266 242 231 264 281 285 278 281 264 258 245 224 209 218 216 233 243 262 190 229 260 227 230 244 246 267 290 161
351 345 343 346 346 348 349 292 259 202 201 232 231 235 247 249 253 255 250 233 256 264 277 282 258 262 296 357 186 274 205 214 250 255 243 194 218 235 219 227 273 282 293 247
351 349 349 347 344 332 336 287 247 225 209 242 260 263 252 234 242 252 235 252 236 258 246 255 261 264 262 174 257 28 347 275 223 243 247 9 226 242 253 249 229 244 248 103
344 347 350 352 343 319 322 248 265 345 243 223 233 255 267 273 229 205 246 260 247 231 244 243 236 251 275 175 201 254 253 261 260 247 279 265 273 241 217 247 240 257 285 158
347 341 349 353 352 320 286 310 344 334 302 309 296 271 242 256 273 223 225 236 255 236 251 240 244 238 258 277 185 212 248 245 261 271 278 265 225 258 274 225 244 248 257 103
344 339 348 354 360 10 329 340 316 301 293 287 272 276 269 240 261 274 240 215 236 245 240 250 252 257 294 277 271 212 218 244 240 255 253 265 271 257 282 254 263 279 314 150
331 333 340 346 356 1 3 318 319 285 277 264 267 306 273 260 241 251 265 240 237 290 359 306 274 274 277 260 272 271 292 252 259 254 264 261 255 7 359 311 264 255 131 153
326 328 333 338 346 358 15 332 337 307 288 299 323 331 329 305 296 227 264 268 287 2 295 276 240 254 257 259 257 243 170 274 274 251 258 265 167 155 165 299 263 324 113 136
330 333 335 340 339 350 9 321 320 296 297 265 331 328 316 308 333 255 235 254 308 317 270 230 240 232 231 222 232 247 236 219 226 262 247 252 268 113 141 346 272 42 68 130
332 339 340 339 336 346 3 321 316 303 290 275 315 329 308 323 333 309 323 279 219 225 233 245 234 236 246 225 208 213 224 235 228 240 256 268 55 118 151 209 92 44 52 141
334 336 336 338 338 337 351 276 304 317 285 278 278 294 293 298 354 359 322 288 210 209 221 236 237 244 245 249 259 210 207 213 226 246 238 245 116 166 236 95 101 85 80 89
322 329 332 332 334 333 349 337 305 301 272 262 282 285 273 258 259 273 318 322 318 310 341 307 302 312 350 354 251 183 240 321 288 4 356 39 70 93 117 120 114 105 103 111
323 327 329 327 325 324 320 300 306 324 282 293 266 264 282 246 249 249 264 206 350 323 3 327 328 21 346 326 28 322 48 46 324 335 48 13 160 120 122 123 117 118 123 125
323 322 323 323 322 315 310 299 293 309 300 282 248 185 256 268 252 248 253 269 285 298 292 316 294 302 334 316 86 321 16 325 285 302 320 340 323 129 121 126 129 125 125 126
329 324 320 318 315 308 304 293 273 275 314 311 306 303 261 255 254 250 256 256 266 283 293 285 277 304 225 268 302 267 16 318 316 305 46 219 305 105 139 132 128 123 123 122
327 323 317 313 304 299 50 324 286 254 265 304 293 323 257 241 243 241 234 229 234 251 272 293 286 284 284 278 258 248 80 31 7 9 47 79 86 94 39 104 119 119 119 122
324 322 316 306 269 183 219 200 243 240 292 284 295 312 198 219 227 230 229 226 235 230 246 228 247 264 241 258 262 290 28 74 31 354 358 86 121 133 148 139 126 121 120 129
327 335 358 352 161 142 266 270 239 235 274 256 270 277 225 172 243 233 201 216 213 236 241 242 226 237 232 250 268 276 266 283 251 5 295 264 225 194 149 145 141 130 134 144
345 122 138 115 139 216 213 260 261 257 252 291 276 294 0 332 352 0 251 254 241 224 223 239 240 227 202 249 255 271 262 261 247 216 359 296 167 200 159 162 158 153 158 160
60 172 221 213 144 276 282 305 220 226 210 227 260 296 291 322 334 46 327 266 255 247 238 230 218 237 241 225 245 254 233 247 269 249 240 176 176 171 162 161 166 166 169 166
308 256 116 32 337 227 229 217 227 209 226 214 250 284 320 306 316 330 288 287 270 255 252 238 238 232 227 236 234 221 226 237 252 243 249 225 186 181 171 161 167 173 178 175
316 277 336 269 206 232 239 223 225 225 225 200 233 244 305 291 292 271 247 255 280 260 276 266 229 243 238 231 222 220 221 230 227 218 217 243 244 165 167 171 169 170 176 168
30 341 271 262 233 321 241 226 212 194 210 165 275 291 275 267 245 242 263 244 245 310 273 264 259 330 232 224 231 212 215 229 233 219 214 229 161 161 169 163 176 170 168 165
214 187 268 242 196 241 257 320 333 39 288 312 320 311 228 240 237 247 258 251 279 256 238 235 10 344 357 358 232 212 204 214 220 217 202 151 142 153 161 157 171 167 166 166
259 253 233 217 212 194 329 324 303 342 321 325 324 300 262 256 252 229 285 253 247 287 12 33 355 318 314 317 332 321 197 220 207 164 139 140 141 147 147 163 177 179 166 161
262 259 251 268 81 340 336 308 317 341 321 326 347 355 315 277 268 222 229 256 48 328 326 332 339 332 304 299 276 233 93 109 119 127 138 145 149 158 172 172 171 159 160 160
247 244 239 264 303 63 308 308 306 309 310 344 35 278 252 312 252 250 327 24 330 314 335 333 327 319 295 255 165 108 110 116 123 130 134 140 158 166 164 154 152 155 159 159
Height
1512 1509 1506 1502 1496 1493 1490 1488 1480 1476 1480 1483 1478 1471 1467 1462 1452 1450 1453 1455 1450 1444 1434 1433 1431 1431 1424 1419 1423 1431 1434 1442 1456 1439 1428 1434 1431 1438 1442 1459 1463 1447 1450 1474
1512 1509 1505 1502 1498 1494 1490 1488 1477 1474 1477 1474 1468 1465 1462 1457 1453 1450 1451 1452 1451 1444 1442 1446 1435 1430 1420 1417 1423 1430 1428 1444 1460 1452 1433 1427 1435 1431 1432 1439 1445 1456 1465 1460
1514 1510 1506 1502 1499 1496 1495 1491 1472 1470 1471 1470 1464 1455 1451 1449 1448 1447 1450 1447 1447 1446 1447 1440 1444 1435 1423 1427 1428 1433 1434 1438 1448 1451 1441 1436 1438 1432 1429 1433 1450 1449 1446 1459
1513 1509 1506 1502 1499 1496 1495 1489 1473 1467 1458 1460 1461 1459 1454 1444 1444 1446 1451 1449 1444 1442 1448 1445 1443 1437 1428 1426 1433 1436 1437 1447 1437 1431 1427 1426 1427 1425 1425 1432 1429 1445 1439 1446
1515 1511 1506 1502 1498 1495 1494 1491 1484 1477 1471 1468 1463 1452 1452 1448 1440 1442 1444 1448 1441 1441 1443 1441 1442 1438 1436 1432 1429 1436 1436 1447 1441 1441 1428 1423 1428 1421 1419 1421 1424 1425 1425 1465
1516 1512 1507 1503 1500 1498 1497 1496 1492 1489 1476 1469 1463 1453 1448 1447 1446 1441 1438 1438 1441 1441 1440 1439 1437 1433 1434 1431 1432 1433 1439 1440 1446 1451 1433 1428 1435 1423 1422 1419 1420 1422 1439 1454
1515 1512 1509 1506 1503 1500 1501 1500 1497 1491 1476 1467 1458 1458 1448 1444 1444 1444 1438 1437 1437 1443 1442 1441 1438 1436 1435 1435 1433 1431 1441 1441 1441 1448 1439 1460 1428 1424 1422 1421 1416 1416 1436 1447
1514 1511 1508 1505 1502 1501 1498 1500 1499 1494 1480 1469 1466 1462 1461 1448 1441 1442 1441 1439 1442 1444 1445 1445 1445 1444 1443 1439 1434 1433 1438 1442 1448 1453 1448 1435 1434 1428 1433 1428 1427 1419 1426 1439
1512 1510 1507 1504 1501 1500 1498 1501 1497 1498 1490 1475 1475 1469 1467 1458 1453 1447 1445 1445 1447 1449 1446 1443 1452 1452 1444 1445 1439 1431 1431 1436 1449 1458 1453 1458 1425 1420 1424 1428 1442 1427 1430 1438
1512 1509 1506 1503 1500 1499 1497 1499 1496 1497 1492 1478 1479 1475 1474 1468 1465 1457 1447 1447 1446 1448 1447 1446 1442 1441 1424 1432 1437 1437 1436 1437 1443 1445 1449 1435 1418 1422 1425 1446 1448 1436 1438 1437
1511 1508 1506 1503 1500 1498 1497 1498 1496 1496 1491 1479 1478 1477 1476 1473 1472 1472 1467 1455 1446 1442 1447 1442 1436 1431 1421 1423 1419 1422 1430 1435 1439 1438 1444 1451 1423 1424 1435 1440 1440 1441 1447 1450
1508 1506 1504 1502 1499 1497 1496 1499 1497 1496 1493 1478 1473 1470 1468 1471 1475 1475 1468 1466 1460 1450 1444 1440 1433 1436 1431 1440 1436 1427 1446 1439 1437 1442 1443 1432 1431 1432 1437 1439 1442 1446 1451 1455
1506 1503 1502 1499 1497 1496 1495 1494 1493 1491 1487 1474 1469 1465 1461 1467 1469 1469 1470 1467 1468 1464 1460 1453 1447 1449 1452 1448 1456 1451 1452 1452 1456 1448 1443 1443 1441 1439 1437 1442 1446 1450 1454 1457
1503 1501 1499 1497 1495 1494 1492 1493 1493 1492 1490 1478 1459 1462 1463 1464 1464 1464 1465 1465 1465 1463 1459 1454 1450 1454 1458 1452 1456 1453 1451 1453 1451 1452 1451 1451 1443 1442 1439 1445 1450 1453 1457 1459
1501 1499 1497 1495 1493 1492 1491 1491 1491 1491 1495 1484 1470 1464 1460 1461 1462 1463 1462 1461 1463 1460 1453 1451 1452 1450 1453 1453 1453 1447 1448 1451 1455 1446 1449 1451 1451 1445 1451 1451 1455 1458 1461 1464
1499 1497 1495 1492 1491 1491 1492 1494 1493 1494 1494 1491 1473 1460 1459 1460 1461 1461 1462 1462 1462 1461 1455 1455 1454 1455 1461 1455 1450 1452 1455 1459 1461 1456 1453 1452 1452 1454 1461 1455 1461 1463 1464 1467
1496 1494 1492 1491 1491 1491 1495 1494 1494 1493 1493 1492 1479 1460 1457 1458 1458 1458 1458 1459 1458 1458 1455 1455 1456 1456 1458 1454 1452 1450 1453 1458 1459 1458 1457 1457 1457 1456 1462 1464 1461 1463 1466 1473
1493 1492 1491 1490 1490 1492 1492 1492 1491 1492 1493 1491 1482 1462 1457 1456 1456 1452 1454 1453 1454 1454 1452 1452 1454 1453 1457 1449 1449 1450 1451 1455 1453 1454 1456 1458 1459 1461 1458 1463 1467 1467 1470 1476
1493 1492 1492 1492 1491 1492 1492 1491 1491 1491 1495 1488 1478 1465 1467 1456 1455 1455 1454 1449 1445 1445 1446 1446 1448 1446 1455 1447 1448 1448 1450 1452 1449 1448 1452 1458 1454 1459 1460 1463 1466 1469 1473 1477
1493 1493 1493 1491 1492 1491 1492 1491 1491 1490 1488 1487 1477 1467 1463 1462 1458 1457 1459 1449 1444 1440 1436 1436 1438 1436 1437 1441 1444 1445 1447 1448 1445 1445 1448 1450 1457 1452 1459 1462 1467 1468 1471 1474
1494 1492 1491 1492 1491 1492 1491 1489 1488 1483 1480 1478 1474 1470 1468 1465 1464 1460 1460 1454 1444 1439 1429 1427 1429 1425 1428 1433 1435 1439 1442 1444 1443 1444 1446 1446 1450 1453 1455 1460 1464 1468 1473 1474
1493 1492 1491 1492 1492 1490 1488 1480 1477 1474 1472 1470 1470 1471 1470 1468 1467 1463 1458 1454 1443 1438 1422 1421 1420 1417 1417 1421 1425 1431 1435 1440 1443 1443 1445 1447 1448 1449 1455 1461 1467 1471 1474 1476
1494 1494 1493 1489 1488 1488 1479 1473 1465 1467 1468 1468 1470 1470 1469 1468 1466 1463 1458 1450 1440 1429 1427 1419 1411 1411 1414 1417 1418 1424 1430 1434 1437 1440 1442 1445 1448 1453 1458 1460 1462 1469 1473 1476
1491 1492 1493 1487 1481 1478 1469 1468 1467 1468 1468 1468 1467 1467 1467 1464 1464 1457 1455 1443 1439 1433 1426 1418 1427 1426 1419 1417 1417 1418 1423 1427 1431 1435 1439 1442 1446 1453 1456 1458 1461 1468 1473 1476
1489 1484 1486 1473 1469 1471 1471 1472 1470 1469 1469 1469 1467 1466 1465 1460 1458 1454 1450 1442 1433 1425 1428 1433 1432 1429 1429 1424 1420 1419 1421 1426 1426 1430 1435 1443 1447 1453 1456 1458 1463 1468 1472 1476
1488 1485 1475 1466 1466 1472 1472 1473 1471 1471 1469 1469 1469 1469 1468 1461 1454 1451 1446 1435 1439 1443 1439 1436 1434 1431 1425 1425 1427 1423 1423 1426 1430 1433 1438 1442 1446 1452 1455 1461 1465 1469 1474 1478
1486 1476 1471 1469 1467 1472 1473 1473 1472 1471 1470 1470 1473 1473 1470 1466 1454 1440 1438 1442 1446 1441 1439 1436 1434 1432 1431 1428 1427 1427 1428 1430 1432 1436 1442 1444 1449 1454 1459 1463 1468 1472 1477 1481